Amsterdam, Netherlands

7:08 AM CET on December 16, 2017 (GMT +0100)
Schiphol

Weather History for EHAM - April, 2013

Change the Weather History Date:

Thursday, April 25, 2013

  Actual Average Record
Temperature  
Mean Temperature 58 °F -  
Max Temperature 70 °F 61 °F 78 °F (2007)
Min Temperature 46 °F 46 °F 33 °F (2016)
Degree Days  
Heating Degree Days 7    
Growing Degree Days 8 (Base 50)    
Moisture  
Dew Point 50 °F    
Average Humidity 76    
Maximum Humidity 94    
Minimum Humidity 47    
Precipitation  
Precipitation 0.00 in - - ()
Sea Level Pressure  
Sea Level Pressure 30.16 in    
Wind  
Wind Speed 6 mph ()    
Max Wind Speed 16 mph    
Max Gust Speed -    
Visibility 6.2 miles    
Events Rain    
Averages and records for this station are not official NWS values.
T = Trace of Precipitation, MM = Missing Value Source: Averaged Metar Reports

Daily Weather History Graph

Daily Weather History Graph

Search for Another Location

Airport or City:

Trip Planner

Search our weather history database for the weather conditions in past years. The results will help you decide how hot, cold, wet, or windy it might be!

Date:

Astronomy

Apr. 25, 2013 Rise Set
Actual Time 6:22 AM CEST 8:56 PM CEST
Civil Twilight 5:44 AM CEST 9:34 PM CEST
Nautical Twilight 4:55 AM CEST 10:23 PM CEST
Astronomical Twilight 3:57 AM CEST 11:22 PM CEST
Moon 8:53 PM CEST (4/25) 5:57 AM CEST (4/25)
Length of Visible Light 15h 50m
Length of Day
14h 34m
Full, 100% of the Moon is Illuminated
Apr 25
Full
Apr 25
Full
May 2
Last Quarter
May 10
New
May 18
First Quarter

Hourly Weather History & Observations

Time (CEST) Temp. Windchill Dew Point Humidity Pressure Visibility Wind Dir Wind Speed Gust Speed Precip Events Conditions
12:25 AM 48.2 °F - 46.4 °F 93% 30.24 in 6.2 mi West 6.9 mph - N/A   Scattered Clouds
12:55 AM 48.2 °F - 46.4 °F 93% 30.24 in 6.2 mi West 5.8 mph - N/A   Scattered Clouds
1:25 AM 46.4 °F 44.3 °F 44.6 °F 93% 30.24 in 6.2 mi West 4.6 mph - N/A   Scattered Clouds
1:55 AM 48.2 °F - 46.4 °F 93% 30.24 in 6.2 mi West 4.6 mph - N/A   Scattered Clouds
2:00 AM 48 °F - 46 °F 89% 30.26 in 4 mi West 4.5 mph - -   Mist
2:25 AM 46.4 °F 45.2 °F 44.6 °F 93% 30.24 in 6.2 mi West 3.5 mph - N/A   Scattered Clouds
2:55 AM 48.2 °F - 46.4 °F 93% 30.24 in 6.2 mi WNW 2.3 mph - N/A   Mostly Cloudy
3:25 AM 48.2 °F - 46.4 °F 93% 30.24 in 6.2 mi Variable 2.3 mph - N/A   Partly Cloudy
3:55 AM 48.2 °F - 46.4 °F 93% 30.24 in - South 5.8 mph - N/A   Clear
4:55 AM 48.2 °F - 46.4 °F 93% 30.24 in 5.6 mi SW 4.6 mph - N/A   Mostly Cloudy
5:00 AM 48 °F - 46 °F 92% 30.26 in 4 mi SSW 4.5 mph - -   Mist
5:25 AM 48.2 °F - 46.4 °F 93% 30.24 in 5.6 mi SSW 2.3 mph - N/A   Partly Cloudy
5:55 AM 48.2 °F - 46.4 °F 93% 30.24 in 5.6 mi SSE 1.2 mph - N/A Rain Light Rain
6:25 AM 50.0 °F - 48.2 °F 94% 30.24 in 3.7 mi SSE 4.6 mph - N/A Rain Light Rain
6:55 AM 50.0 °F - 48.2 °F 94% 30.24 in 4.3 mi South 2.3 mph - N/A Rain Light Rain
7:25 AM 50.0 °F - 48.2 °F 94% 30.24 in 5.0 mi SSE 2.3 mph - N/A   Unknown
7:55 AM 51.8 °F - 48.2 °F 88% 30.24 in 5.0 mi South 4.6 mph - N/A   Partly Cloudy
8:00 AM 51 °F - 49 °F 90% 30.25 in 4 mi South 4.5 mph - - Rain Rain
8:25 AM 51.8 °F - 50.0 °F 94% 30.24 in 5.6 mi South 4.6 mph - N/A   Unknown
8:55 AM 53.6 °F - 50.0 °F 88% 30.24 in - South 5.8 mph - N/A   Clear
9:25 AM 53.6 °F - 50.0 °F 88% 30.21 in - South 6.9 mph - N/A   Clear
9:55 AM 55.4 °F - 51.8 °F 88% 30.24 in - South 6.9 mph - N/A   Clear
10:25 AM 57.2 °F - 51.8 °F 82% 30.21 in - SSE 6.9 mph - N/A   Clear
10:55 AM 59.0 °F - 53.6 °F 82% 30.21 in - South 9.2 mph - N/A   Clear
11:00 AM 59 °F - 53 °F 73% 30.24 in 5 mi South 8.9 mph - -   Mist
11:25 AM 60.8 °F - 53.6 °F 77% 30.21 in - South 6.9 mph - N/A   Clear
11:55 AM 60.8 °F - 53.6 °F 77% 30.21 in - SSW 10.4 mph - N/A   Clear
12:25 PM 62.6 °F - 53.6 °F 72% 30.21 in - South 10.4 mph - N/A   Clear
12:55 PM 62.6 °F - 53.6 °F 72% 30.18 in - South 10.4 mph - N/A   Clear
1:25 PM 62.6 °F - 53.6 °F 72% 30.18 in 6.2 mi SSW 12.7 mph - N/A Rain Light Rain
1:55 PM 66.2 °F - 55.4 °F 68% 30.15 in - South 9.2 mph - N/A   Clear
2:00 PM 67 °F - 55 °F 57% 30.18 in 6 mi South 11.2 mph - - Rain Rain
2:25 PM 66.2 °F - 55.4 °F 68% 30.15 in - South 11.5 mph - N/A   Clear
2:55 PM 68.0 °F - 55.4 °F 64% 30.12 in - SSW 9.2 mph - N/A   Clear
3:25 PM 68.0 °F - 55.4 °F 64% 30.12 in - SSW 12.7 mph - N/A   Clear
3:55 PM 69.8 °F - 53.6 °F 56% 30.12 in - SSW 15.0 mph - N/A   Clear
4:25 PM 69.8 °F - 53.6 °F 56% 30.12 in - WSW 12.7 mph - N/A   Clear
4:55 PM 69.8 °F - 53.6 °F 56% 30.09 in - WSW 10.4 mph - N/A   Clear
5:00 PM 68 °F - 52 °F 47% 30.11 in 15 mi WSW 13.4 mph - -   Overcast
5:25 PM 69.8 °F - 51.8 °F 53% 30.09 in - WSW 12.7 mph - N/A   Clear
5:55 PM 68.0 °F - 50.0 °F 52% 30.09 in - West 16.1 mph - N/A   Clear
6:25 PM 68.0 °F - 53.6 °F 60% 30.06 in - WSW 11.5 mph - N/A   Clear
6:55 PM 66.2 °F - 51.8 °F 60% 30.06 in - WSW 12.7 mph - N/A   Clear
7:25 PM 66.2 °F - 51.8 °F 60% 30.04 in 6.2 mi WSW 11.5 mph - N/A   Scattered Clouds
7:55 PM 64.4 °F - 51.8 °F 64% 30.04 in 6.2 mi WSW 9.2 mph - N/A   Scattered Clouds
8:00 PM 63 °F - 51 °F 56% 30.06 in 10 mi WSW 11.2 mph - -   Partly Cloudy
8:25 PM 62.6 °F - 51.8 °F 68% 30.04 in - SW 9.2 mph - N/A   Clear
8:55 PM 62.6 °F - 50.0 °F 63% 30.04 in - SW 9.2 mph - N/A   Clear
9:25 PM 62.6 °F - 50.0 °F 63% 30.04 in - SW 11.5 mph - N/A   Clear
9:55 PM 60.8 °F - 50.0 °F 68% 30.01 in - WSW 10.4 mph - N/A   Clear
10:25 PM 57.2 °F - 48.2 °F 72% 30.01 in - SW 9.2 mph - N/A   Clear
10:55 PM 55.4 °F - 48.2 °F 77% 30.01 in - SW 8.1 mph - N/A   Clear
11:00 PM 57 °F - 48 °F 65% 30.02 in 12 mi SW 8.9 mph - -  
11:25 PM 55.4 °F - 48.2 °F 77% 30.01 in - SW 9.2 mph - N/A   Clear
11:55 PM 55.4 °F - 48.2 °F 77% 29.98 in - SW 9.2 mph - N/A   Clear